Flag for U.S.A. Weather past 2 weeks in Temple, Texas, U.S.A.

Now
63 °F

Clear.


Feels Like: 63 °F
Forecast: 63 / 81 °F
Wind: 10 mph from Northwest

Location: Fort Hood AAF Airport

Current Time: Apr 27, 2015 at 4:22:05 AM

Latest Report: Apr 27, 2015 at 3:58 AM


Visibility: 10 mi

Pressure: 29.59 "Hg

Humidity: 92%

Dew point: 61 °F

Location of TempleLocation

Historic Weather in Temple — Graph

°F

Temple temperature yesterday

Maximum temperature yesterday: 87 °F (at 3:58 PM)
Minimum temperature yesterday: 65 °F (at 3:58 AM)
Average temperature yesterday: 75 °F

Past Weeks' High & Low Weather Summary

 TemperatureHumidityPressure
High88 °F (Apr 25, 4:58 PM)100% (Apr 12, 4:03 AM)30.11 "Hg (Apr 12, 4:03 AM)
Low49 °F (Apr 20, 5:58 AM)19% (Apr 25, 2:58 PM)29.46 "Hg (Apr 27, 2:58 AM)
Average69 °F75%29.85 "Hg
* Reported Apr 12 2:58 AM — Apr 27 2:58 AM, Temple, Weather by CustomWeather, © 2015

Note: Actual official high and low records may vary slightly from our data, if they occured in-between our weather recording intervals... More about our weather records

Advertising

Temple weather history for previous 24 hours

 ConditionsComfort  
Time TempWeatherWind HumidityBarometerVisibility
2:58 AM
Mon, Apr 27
64 °FLight rain. Fog.25 mph93%29.46 "Hg5 mi
1:58 AM64 °FThundershowers. Fog.9 mph90%29.64 "Hg5 mi
1:02 AM73 °FLight rain. Passing clouds.5 mph78%29.64 "Hg10 mi
12:58 AM73 °FPassing clouds.3 mph77%29.62 "Hg10 mi
11:58 PM
Sun, Apr 26
74 °FMostly cloudy.2 mph74%29.58 "Hg10 mi
10:58 PM74 °FPassing clouds.17 mph72%29.51 "Hg10 mi
9:58 PM76 °FClear.20 mph78%29.50 "Hg10 mi
8:58 PM77 °FPassing clouds.17 mph76%29.53 "Hg10 mi
7:58 PM79 °FPassing clouds.17 mph70%29.52 "Hg10 mi
6:58 PM82 °FPassing clouds.22 mph61%29.51 "Hg10 mi
5:58 PM83 °FPassing clouds.21 mph58%29.52 "Hg10 mi
4:58 PM85 °FSunny.22 mph55%29.52 "Hg10 mi
3:58 PM87 °FSunny.21 mph35%29.55 "Hg10 mi
2:59 PM86 °FSunny.15 mph46%29.62 "Hg10 mi
1:58 PM80 °FPassing clouds.8 mph63%29.63 "Hg10 mi
12:58 PM81 °FPartly sunny.6 mph62%29.64 "Hg10 mi
11:58 AM78 °FPartly sunny.9 mph72%29.69 "Hg10 mi
10:58 AM74 °FPartly sunny.12 mph85%29.72 "Hg10 mi
9:58 AM72 °FLow clouds.8 mph94%29.69 "Hg9 mi
8:58 AM71 °FSunny.8 mph91%29.69 "Hg10 mi
7:58 AM68 °FScattered clouds.2 mph95%29.69 "Hg8 mi
6:58 AM68 °FPassing clouds.2 mph93%29.68 "Hg9 mi
5:58 AM69 °FOvercast.6 mph93%29.67 "Hg10 mi
4:58 AM67 °FLow clouds.10 mph93%29.67 "Hg9 mi
Weather by CustomWeather, © 2015

See weather overviewHow to use our weather pages